Groton, South Dakota, United States (57445)
Lat: 45.45N, Lon: 98.1W
Wx Zone: SDZ006
Local Info
Past Weather Observations for Friday, August 28, 2015

NOTE: This archive is for the closest National Weather Service station to Groton. Information may differ from the station used for current weather conditions.

Click here for Long-term Archive

Time Weather Temperature Dewpoint Humidity Pressure Winds Precip Visibility
23:53
Clear
66°F / 19°C 63°F / 17°C 88% 29.98 in
(1015 mb)
S 10.4 mph
(S 17 kph)
- 10SM
22:53
Clear
66°F / 19°C 63°F / 17°C 88% 29.98 in
(1015 mb)
S 10.4 mph
(S 17 kph)
- 10SM
21:53
Clear
70°F / 21°C 64°F / 18°C 83% 29.98 in
(1015 mb)
S 12.7 mph
(S 20 kph)
- 10SM
20:53
Clear
68°F / 20°C 64°F / 18°C 88% 29.98 in
(1015 mb)
S 5.8 mph
(S 9 kph)
- 10SM
19:53
Clear
66°F / 19°C 64°F / 18°C 94% 29.98 in
(1015 mb)
S 6.9 mph
(S 11 kph)
- 10SM
18:53
Clear
72°F / 22°C 66°F / 19°C 83% 29.95 in
(1014 mb)
S 5.8 mph
(S 9 kph)
- 10SM
17:53
Clear
75°F / 24°C 66°F / 19°C 74% 29.95 in
(1014 mb)
S 6.9 mph
(S 11 kph)
- 10SM
16:53
Clear
77°F / 25°C 66°F / 19°C 69% 29.95 in
(1014 mb)
SSE 9.2 mph
(SSE 15 kph)
- 10SM
15:53
Clear
79°F / 26°C 66°F / 19°C 65% 29.95 in
(1014 mb)
S 8.1 mph
(S 13 kph)
- 10SM
14:53
Partly Cloudy
79°F / 26°C 66°F / 19°C 65% 29.95 in
(1014 mb)
SSE 10.4 mph
(SSE 17 kph)
- 10SM
13:53
Mostly Cloudy
77°F / 25°C 66°F / 19°C 69% 29.95 in
(1014 mb)
SSE 8.1 mph
(SSE 13 kph)
- 10SM
12:53
Overcast
73°F / 23°C 66°F / 19°C 78% 29.98 in
(1015 mb)
SSE 8.1 mph
(SSE 13 kph)
- 10SM
12:17
Overcast
73°F / 23°C 66°F / 19°C 78% 29.98 in
(1015 mb)
S 6.9 mph
(S 11 kph)
- 10SM
11:53
Mostly Cloudy
75°F / 24°C 66°F / 19°C 74% 29.98 in
(1015 mb)
SW 4.6 mph
(SW 7 kph)
- 10SM
11:28
Partly Cloudy
75°F / 24°C 66°F / 19°C 74% 29.98 in
(1015 mb)
SW 4.6 mph
(SW 7 kph)
- 10SM
11:06
Overcast
73°F / 23°C 66°F / 19°C 78% 29.98 in
(1015 mb)
Variable 4.6 mph
(Variable 7 kph)
- 10SM
10:53
Overcast
72°F / 22°C 64°F / 18°C 78% 29.98 in
(1015 mb)
S 5.8 mph
(S 9 kph)
- 10SM
09:53
Overcast
70°F / 21°C 64°F / 18°C 83% 29.98 in
(1015 mb)
SW 5.8 mph
(SW 9 kph)
- 10SM
08:53
Mostly Cloudy
70°F / 21°C 64°F / 18°C 83% 29.95 in
(1014 mb)
S 9.2 mph
(S 15 kph)
- 10SM
08:34
Partly Cloudy
70°F / 21°C 64°F / 18°C 83% 29.95 in
(1014 mb)
S 8.1 mph
(S 13 kph)
- 10SM
07:53
Partly Cloudy
64°F / 18°C 63°F / 17°C 94% 29.95 in
(1014 mb)
S 6.9 mph
(S 11 kph)
- 7SM
07:24
Clear
Fog And Mist
64°F / 18°C 63°F / 17°C 94% 29.95 in
(1014 mb)
SSE 3.5 mph
(SSE 6 kph)
- 4SM
07:14
Clear
Fog And Mist
63°F / 17°C 61°F / 16°C 94% 29.95 in
(1014 mb)
S 3.5 mph
(S 6 kph)
- 2 1/2SM
07:03
Partly Cloudy
Fog And Mist
63°F / 17°C 61°F / 16°C 94% 29.95 in
(1014 mb)
Calm - 1 1/2SM
06:59
Obscured
Fog And Mist
61°F / 16°C 59°F / 15°C 94% 29.95 in
(1014 mb)
Calm - 1SM
06:53
Obscured
Fog
61°F / 16°C 59°F / 15°C 94% 29.95 in
(1014 mb)
Calm - 1/4SM
06:25
Obscured
Fog
61°F / 16°C 59°F / 15°C 94% 29.95 in
(1014 mb)
SSE 4.6 mph
(SSE 7 kph)
- 1/4SM
06:12
Partly Cloudy
Fog
61°F / 16°C 59°F / 15°C 94% 29.95 in
(1014 mb)
S 5.8 mph
(S 9 kph)
- 1/4SM
06:08
Mostly Cloudy
Fog And Mist
61°F / 16°C 59°F / 15°C 94% 29.95 in
(1014 mb)
SSE 5.8 mph
(SSE 9 kph)
- 3/4SM
06:05
Mostly Cloudy
Fog And Mist
61°F / 16°C 61°F / 16°C 100% 29.95 in
(1014 mb)
SSE 5.8 mph
(SSE 9 kph)
- 1 1/2SM
05:53
Mostly Cloudy
Fog And Mist
61°F / 16°C 61°F / 16°C 100% 29.95 in
(1014 mb)
S 5.8 mph
(S 9 kph)
- 3SM
05:36
Mostly Cloudy
Fog And Mist
61°F / 16°C 61°F / 16°C 100% 29.95 in
(1014 mb)
S 4.6 mph
(S 7 kph)
- 3SM
05:33
Mostly Cloudy
Fog And Mist
61°F / 16°C 61°F / 16°C 100% 29.95 in
(1014 mb)
S 4.6 mph
(S 7 kph)
- 2 1/2SM
04:53
Overcast
Fog And Mist
63°F / 17°C 61°F / 16°C 94% 29.95 in
(1014 mb)
Calm - 4SM
04:36
Overcast
Fog And Mist
61°F / 16°C 59°F / 15°C 94% 29.95 in
(1014 mb)
SSE 4.6 mph
(SSE 7 kph)
- 2SM
04:18
Mostly Cloudy
Fog And Mist
61°F / 16°C 59°F / 15°C 94% 29.95 in
(1014 mb)
SSE 4.6 mph
(SSE 7 kph)
- 1 1/4SM
04:14
Mostly Cloudy
Fog And Mist
61°F / 16°C 61°F / 16°C 100% 29.95 in
(1014 mb)
SSE 5.8 mph
(SSE 9 kph)
- 2SM
03:53
Partly Cloudy
Fog And Mist
63°F / 17°C 61°F / 16°C 94% 29.92 in
(1013 mb)
S 3.5 mph
(S 6 kph)
- 4SM
03:47
Partly Cloudy
Fog And Mist
63°F / 17°C 61°F / 16°C 94% 29.92 in
(1013 mb)
S 5.8 mph
(S 9 kph)
- 2 1/2SM
03:44
Partly Cloudy
Fog And Mist
63°F / 17°C 61°F / 16°C 94% 29.92 in
(1013 mb)
S 6.9 mph
(S 11 kph)
- 1 1/4SM
03:38
Obscured
Fog
61°F / 16°C 61°F / 16°C 100% 29.92 in
(1013 mb)
S 6.9 mph
(S 11 kph)
- 1/2SM
02:53
Obscured
Fog
61°F / 16°C 57°F / 14°C 88% 29.95 in
(1014 mb)
SSE 6.9 mph
(SSE 11 kph)
- 1/4SM
01:53
Obscured
Fog
61°F / 16°C 61°F / 16°C 100% 29.95 in
(1014 mb)
Calm - 1/4SM
01:43
Obscured
Fog And Mist
63°F / 17°C 61°F / 16°C 94% 29.92 in
(1013 mb)
Calm - 3/4SM
01:40
Partly Cloudy
Fog And Mist
63°F / 17°C 61°F / 16°C 94% 29.92 in
(1013 mb)
Calm - 1 1/4SM
01:32
Clear
Fog And Mist
63°F / 17°C 61°F / 16°C 94% 29.92 in
(1013 mb)
Calm - 3SM
01:29
Clear
Fog And Mist
63°F / 17°C 61°F / 16°C 94% 29.92 in
(1013 mb)
Calm - 1 1/2SM
00:53
Clear
Fog
61°F / 16°C 59°F / 15°C 94% 29.95 in
(1014 mb)
SSE 5.8 mph
(SSE 9 kph)
- 1/2SM
00:51
Clear
Fog And Mist
61°F / 16°C 61°F / 16°C 100% 29.95 in
(1014 mb)
SSE 5.8 mph
(SSE 9 kph)
- 3/4SM
00:45
Clear
Fog And Mist
63°F / 17°C 61°F / 16°C 94% 29.95 in
(1014 mb)
SSE 4.6 mph
(SSE 7 kph)
- 1 3/4SM
Time Weather Temperature Dewpoint Humidity Pressure Winds Precip Visibility


Weather for websites

WeatherForYou.com, LLC is not responsible for any damages or problems caused by this service. Current weather conditions are obtained from the closest station including government and personal stations which may have varying degrees of accuracy. Weather forecasts are derived from the NOAA NDFD. Like all things, this site belongs to Jesus Christ... He just trusts us to maintain it. If you have any questions or comments email webmaster@weatherforyou.com

Copyright © 2015, WeatherForYou.com LLC. All rights reserved.